Year,Month,Day,Hour,Minute,Value (Times are PST for insolation in W/m^2)
2011,07,02,00,00,0.00
2011,07,02,00,01,0.00
2011,07,02,00,02,0.00
2011,07,02,00,03,0.00
2011,07,02,00,04,0.00
2011,07,02,00,05,0.00
2011,07,02,00,06,0.00
2011,07,02,00,07,0.00
2011,07,02,00,08,0.00
2011,07,02,00,09,0.00
2011,07,02,00,10,0.00
2011,07,02,00,11,0.00
2011,07,02,00,12,0.00
2011,07,02,00,13,0.00
2011,07,02,00,14,0.00
2011,07,02,00,15,0.00
2011,07,02,00,16,0.00
2011,07,02,00,17,0.00
2011,07,02,00,18,0.00
2011,07,02,00,19,0.00
2011,07,02,00,20,0.00
2011,07,02,00,21,0.00
2011,07,02,00,22,0.00
2011,07,02,00,23,0.00
2011,07,02,00,24,0.00
2011,07,02,00,25,0.00
2011,07,02,00,26,0.00
2011,07,02,00,27,0.00
2011,07,02,00,28,0.00
2011,07,02,00,29,0.00
2011,07,02,00,30,0.00
2011,07,02,00,31,0.00
2011,07,02,00,32,0.00
2011,07,02,00,33,0.00
2011,07,02,00,34,0.00
2011,07,02,00,35,0.00
2011,07,02,00,36,0.00
2011,07,02,00,37,0.00
2011,07,02,00,38,0.00
2011,07,02,00,39,0.00
2011,07,02,00,40,0.00
2011,07,02,00,41,0.00
2011,07,02,00,42,0.00
2011,07,02,00,43,0.00
2011,07,02,00,44,0.00
2011,07,02,00,45,0.00
2011,07,02,00,46,0.00
2011,07,02,00,47,0.00
2011,07,02,00,48,0.00
2011,07,02,00,49,0.00
2011,07,02,00,50,0.00
2011,07,02,00,51,0.00
2011,07,02,00,52,0.00
2011,07,02,00,53,0.00
2011,07,02,00,54,0.00
2011,07,02,00,55,0.00
2011,07,02,00,56,0.00
2011,07,02,00,57,0.00
2011,07,02,00,58,0.00
2011,07,02,00,59,0.00
2011,07,02,01,00,0.00
2011,07,02,01,01,0.00
2011,07,02,01,02,0.00
2011,07,02,01,03,0.00
2011,07,02,01,04,0.00
2011,07,02,01,05,0.00
2011,07,02,01,06,0.00
2011,07,02,01,07,0.00
2011,07,02,01,08,0.00
2011,07,02,01,09,0.00
2011,07,02,01,10,0.00
2011,07,02,01,11,0.00
2011,07,02,01,12,0.00
2011,07,02,01,13,0.00
2011,07,02,01,14,0.00
2011,07,02,01,15,0.00
2011,07,02,01,16,0.00
2011,07,02,01,17,0.00
2011,07,02,01,18,0.00
2011,07,02,01,19,0.00
2011,07,02,01,20,0.00
2011,07,02,01,21,0.00
2011,07,02,01,22,0.00
2011,07,02,01,23,0.00
2011,07,02,01,24,0.00
2011,07,02,01,25,0.00
2011,07,02,01,26,0.00
2011,07,02,01,27,0.00
2011,07,02,01,28,0.00
2011,07,02,01,29,0.00
2011,07,02,01,30,0.00
2011,07,02,01,31,0.00
2011,07,02,01,32,0.00
2011,07,02,01,33,0.00
2011,07,02,01,34,0.00
2011,07,02,01,35,0.00
2011,07,02,01,36,0.00
2011,07,02,01,37,0.00
2011,07,02,01,38,0.00
2011,07,02,01,39,0.00
2011,07,02,01,40,0.00
2011,07,02,01,41,0.00
2011,07,02,01,42,0.00
2011,07,02,01,43,0.00
2011,07,02,01,44,0.00
2011,07,02,01,45,0.00
2011,07,02,01,46,0.00
2011,07,02,01,47,0.00
2011,07,02,01,48,0.00
2011,07,02,01,49,0.00
2011,07,02,01,50,0.00
2011,07,02,01,51,0.00
2011,07,02,01,52,0.00
2011,07,02,01,53,0.00
2011,07,02,01,54,0.00
2011,07,02,01,55,0.00
2011,07,02,01,56,0.00
2011,07,02,01,57,0.00
2011,07,02,01,58,0.00
2011,07,02,01,59,0.00
2011,07,02,02,00,0.00
2011,07,02,02,01,0.00
2011,07,02,02,02,0.00
2011,07,02,02,03,0.00
2011,07,02,02,04,0.00
2011,07,02,02,05,0.00
2011,07,02,02,06,0.00
2011,07,02,02,07,0.00
2011,07,02,02,08,0.00
2011,07,02,02,09,0.00
2011,07,02,02,10,0.00
2011,07,02,02,11,0.00
2011,07,02,02,12,0.00
2011,07,02,02,13,0.00
2011,07,02,02,14,0.00
2011,07,02,02,15,0.00
2011,07,02,02,16,0.00
2011,07,02,02,17,0.00
2011,07,02,02,18,0.00
2011,07,02,02,19,0.00
2011,07,02,02,20,0.00
2011,07,02,02,21,0.00
2011,07,02,02,22,0.00
2011,07,02,02,23,0.00
2011,07,02,02,24,0.00
2011,07,02,02,25,0.00
2011,07,02,02,26,0.00
2011,07,02,02,27,0.00
2011,07,02,02,28,0.00
2011,07,02,02,29,0.00
2011,07,02,02,30,0.00
2011,07,02,02,31,0.00
2011,07,02,02,32,0.00
2011,07,02,02,33,0.00
2011,07,02,02,34,0.00
2011,07,02,02,35,0.00
2011,07,02,02,36,0.00
2011,07,02,02,37,0.00
2011,07,02,02,38,0.00
2011,07,02,02,39,0.00
2011,07,02,02,40,0.00
2011,07,02,02,41,0.00
2011,07,02,02,42,0.00
2011,07,02,02,43,0.00
2011,07,02,02,44,0.00
2011,07,02,02,45,0.00
2011,07,02,02,46,0.00
2011,07,02,02,47,0.00
2011,07,02,02,48,0.00
2011,07,02,02,49,0.00
2011,07,02,02,50,0.00
2011,07,02,02,51,0.00
2011,07,02,02,52,0.00
2011,07,02,02,53,0.00
2011,07,02,02,54,0.00
2011,07,02,02,55,0.00
2011,07,02,02,56,0.00
2011,07,02,02,57,0.00
2011,07,02,02,58,0.00
2011,07,02,02,59,0.00
2011,07,02,03,00,0.00
2011,07,02,03,01,0.00
2011,07,02,03,02,0.00
2011,07,02,03,03,0.00
2011,07,02,03,04,0.00
2011,07,02,03,05,0.00
2011,07,02,03,06,0.00
2011,07,02,03,07,0.00
2011,07,02,03,08,0.00
2011,07,02,03,09,0.00
2011,07,02,03,10,0.00
2011,07,02,03,11,0.00
2011,07,02,03,12,0.00
2011,07,02,03,13,0.00
2011,07,02,03,14,0.00
2011,07,02,03,15,0.00
2011,07,02,03,16,0.00
2011,07,02,03,17,0.00
2011,07,02,03,18,0.00
2011,07,02,03,19,0.00
2011,07,02,03,20,0.00
2011,07,02,03,21,0.00
2011,07,02,03,22,0.00
2011,07,02,03,23,0.00
2011,07,02,03,24,0.00
2011,07,02,03,25,0.00
2011,07,02,03,26,0.00
2011,07,02,03,27,0.00
2011,07,02,03,28,0.00
2011,07,02,03,29,0.00
2011,07,02,03,30,0.00
2011,07,02,03,31,0.00
2011,07,02,03,32,0.00
2011,07,02,03,33,0.00
2011,07,02,03,34,0.00
2011,07,02,03,35,0.00
2011,07,02,03,36,0.00
2011,07,02,03,37,0.00
2011,07,02,03,38,0.00
2011,07,02,03,39,0.00
2011,07,02,03,40,0.00
2011,07,02,03,41,0.00
2011,07,02,03,42,0.00
2011,07,02,03,43,0.00
2011,07,02,03,44,0.00
2011,07,02,03,45,0.00
2011,07,02,03,46,0.00
2011,07,02,03,47,0.00
2011,07,02,03,48,0.00
2011,07,02,03,49,0.00
2011,07,02,03,50,0.00
2011,07,02,03,51,0.00
2011,07,02,03,52,0.00
2011,07,02,03,53,0.00
2011,07,02,03,54,0.00
2011,07,02,03,55,0.00
2011,07,02,03,56,0.00
2011,07,02,03,57,0.00
2011,07,02,03,58,0.00
2011,07,02,03,59,0.00
2011,07,02,04,00,0.00
2011,07,02,04,01,0.00
2011,07,02,04,02,0.00
2011,07,02,04,03,0.00
2011,07,02,04,04,0.00
2011,07,02,04,05,0.00
2011,07,02,04,06,0.00
2011,07,02,04,07,0.00
2011,07,02,04,08,0.00
2011,07,02,04,09,0.00
2011,07,02,04,10,0.00
2011,07,02,04,11,0.00
2011,07,02,04,12,0.00
2011,07,02,04,13,0.00
2011,07,02,04,14,0.00
2011,07,02,04,15,0.00
2011,07,02,04,16,0.00
2011,07,02,04,17,0.00
2011,07,02,04,18,0.00
2011,07,02,04,19,0.00
2011,07,02,04,20,0.00
2011,07,02,04,21,0.00
2011,07,02,04,22,0.00
2011,07,02,04,23,0.00
2011,07,02,04,24,0.00
2011,07,02,04,25,0.00
2011,07,02,04,26,0.00
2011,07,02,04,27,0.00
2011,07,02,04,28,0.00
2011,07,02,04,29,0.00
2011,07,02,04,30,0.00
2011,07,02,04,31,0.00
2011,07,02,04,32,0.00
2011,07,02,04,33,0.00
2011,07,02,04,34,0.00
2011,07,02,04,35,0.00
2011,07,02,04,36,0.00
2011,07,02,04,37,0.00
2011,07,02,04,38,0.00
2011,07,02,04,39,0.00
2011,07,02,04,40,0.00
2011,07,02,04,41,0.00
2011,07,02,04,42,0.00
2011,07,02,04,43,0.00
2011,07,02,04,44,0.00
2011,07,02,04,45,0.00
2011,07,02,04,46,0.00
2011,07,02,04,47,0.00
2011,07,02,04,48,0.00
2011,07,02,04,49,0.00
2011,07,02,04,50,0.00
2011,07,02,04,51,0.00
2011,07,02,04,52,0.00
2011,07,02,04,53,0.00
2011,07,02,04,54,0.00
2011,07,02,04,55,0.00
2011,07,02,04,56,0.00
2011,07,02,04,57,0.00
2011,07,02,04,58,0.00
2011,07,02,04,59,0.00
2011,07,02,05,00,0.00
2011,07,02,05,01,0.00
2011,07,02,05,02,0.00
2011,07,02,05,03,0.00
2011,07,02,05,04,0.00
2011,07,02,05,05,0.00
2011,07,02,05,06,0.00
2011,07,02,05,07,0.00
2011,07,02,05,08,0.00
2011,07,02,05,09,0.00
2011,07,02,05,10,0.00
2011,07,02,05,11,0.00
2011,07,02,05,12,0.00
2011,07,02,05,13,0.00
2011,07,02,05,14,0.00
2011,07,02,05,15,0.00
2011,07,02,05,16,0.00
2011,07,02,05,17,0.00
2011,07,02,05,18,0.00
2011,07,02,05,19,0.00
2011,07,02,05,20,0.00
2011,07,02,05,21,4.70
2011,07,02,05,22,5.00
2011,07,02,05,23,5.00
2011,07,02,05,24,5.00
2011,07,02,05,25,6.30
2011,07,02,05,26,7.00
2011,07,02,05,27,7.00
2011,07,02,05,28,7.00
2011,07,02,05,29,7.80
2011,07,02,05,30,9.00
2011,07,02,05,31,9.00
2011,07,02,05,32,9.00
2011,07,02,05,33,9.30
2011,07,02,05,34,11.00
2011,07,02,05,35,11.00
2011,07,02,05,36,11.00
2011,07,02,05,37,11.00
2011,07,02,05,38,11.90
2011,07,02,05,39,12.00
2011,07,02,05,40,12.00
2011,07,02,05,41,12.00
2011,07,02,05,42,13.30
2011,07,02,05,43,14.00
2011,07,02,05,44,14.00
2011,07,02,05,45,14.00
2011,07,02,05,46,14.70
2011,07,02,05,47,16.00
2011,07,02,05,48,16.00
2011,07,02,05,49,16.00
2011,07,02,05,50,16.10
2011,07,02,05,51,18.00
2011,07,02,05,52,18.00
2011,07,02,05,53,18.00
2011,07,02,05,54,18.00
2011,07,02,05,55,18.00
2011,07,02,05,56,18.90
2011,07,02,05,57,19.00
2011,07,02,05,58,19.70
2011,07,02,05,59,23.50
2011,07,02,06,00,30.50
2011,07,02,06,01,33.00
2011,07,02,06,02,34.50
2011,07,02,06,03,30.00
2011,07,02,06,04,35.10
2011,07,02,06,05,50.80
2011,07,02,06,06,61.40
2011,07,02,06,07,64.60
2011,07,02,06,08,67.10
2011,07,02,06,09,69.20
2011,07,02,06,10,70.80
2011,07,02,06,11,73.20
2011,07,02,06,12,75.40
2011,07,02,06,13,76.00
2011,07,02,06,14,79.30
2011,07,02,06,15,81.60
2011,07,02,06,16,83.40
2011,07,02,06,17,85.20
2011,07,02,06,18,87.50
2011,07,02,06,19,89.80
2011,07,02,06,20,91.30
2011,07,02,06,21,93.60
2011,07,02,06,22,96.00
2011,07,02,06,23,97.60
2011,07,02,06,24,99.50
2011,07,02,06,25,101.90
2011,07,02,06,26,104.20
2011,07,02,06,27,105.70
2011,07,02,06,28,107.90
2011,07,02,06,29,110.20
2011,07,02,06,30,112.60
2011,07,02,06,31,114.10
2011,07,02,06,32,116.40
2011,07,02,06,33,118.70
2011,07,02,06,34,120.50
2011,07,02,06,35,121.00
2011,07,02,06,36,125.50
2011,07,02,06,37,128.10
2011,07,02,06,38,130.40
2011,07,02,06,39,132.70
2011,07,02,06,40,134.50
2011,07,02,06,41,136.30
2011,07,02,06,42,138.70
2011,07,02,06,43,141.10
2011,07,02,06,44,142.00
2011,07,02,06,45,144.50
2011,07,02,06,46,148.50
2011,07,02,06,47,150.40
2011,07,02,06,48,152.70
2011,07,02,06,49,156.20
2011,07,02,06,50,158.50
2011,07,02,06,51,161.30
2011,07,02,06,52,164.20
2011,07,02,06,53,167.80
2011,07,02,06,54,171.50
2011,07,02,06,55,174.60
2011,07,02,06,56,178.90
2011,07,02,06,57,181.80
2011,07,02,06,58,184.70
2011,07,02,06,59,187.50
2011,07,02,07,00,191.40
2011,07,02,07,01,193.60
2011,07,02,07,02,197.60
2011,07,02,07,03,199.00
2011,07,02,07,04,199.00
2011,07,02,07,05,199.80
2011,07,02,07,06,203.70
2011,07,02,07,07,206.50
2011,07,02,07,08,209.60
2011,07,02,07,09,212.00
2011,07,02,07,10,214.90
2011,07,02,07,11,217.60
2011,07,02,07,12,220.70
2011,07,02,07,13,221.80
2011,07,02,07,14,225.70
2011,07,02,07,15,228.00
2011,07,02,07,16,229.70
2011,07,02,07,17,231.60
2011,07,02,07,18,234.00
2011,07,02,07,19,236.20
2011,07,02,07,20,237.80
2011,07,02,07,21,240.10
2011,07,02,07,22,243.10
2011,07,02,07,23,247.20
2011,07,02,07,24,251.10
2011,07,02,07,25,253.50
2011,07,02,07,26,255.80
2011,07,02,07,27,257.50
2011,07,02,07,28,258.00
2011,07,02,07,29,263.10
2011,07,02,07,30,265.20
2011,07,02,07,31,267.50
2011,07,02,07,32,269.80
2011,07,02,07,33,272.70
2011,07,02,07,34,275.40
2011,07,02,07,35,278.70
2011,07,02,07,36,283.60
2011,07,02,07,37,287.30
2011,07,02,07,38,288.90
2011,07,02,07,39,291.20
2011,07,02,07,40,292.00
2011,07,02,07,41,296.20
2011,07,02,07,42,299.30
2011,07,02,07,43,301.30
2011,07,02,07,44,302.90
2011,07,02,07,45,306.40
2011,07,02,07,46,308.70
2011,07,02,07,47,311.00
2011,07,02,07,48,315.20
2011,07,02,07,49,317.20
2011,07,02,07,50,320.90
2011,07,02,07,51,322.60
2011,07,02,07,52,324.60
2011,07,02,07,53,328.60
2011,07,02,07,54,330.40
2011,07,02,07,55,333.50
2011,07,02,07,56,337.00
2011,07,02,07,57,338.60
2011,07,02,07,58,342.20
2011,07,02,07,59,345.10
2011,07,02,08,00,348.40
2011,07,02,08,01,350.70
2011,07,02,08,02,353.60
2011,07,02,08,03,356.40
2011,07,02,08,04,359.40
2011,07,02,08,05,364.00
2011,07,02,08,06,366.20
2011,07,02,08,07,367.00
2011,07,02,08,08,369.30
2011,07,02,08,09,372.40
2011,07,02,08,10,375.50
2011,07,02,08,11,380.00
2011,07,02,08,12,380.80
2011,07,02,08,13,383.80
2011,07,02,08,14,386.10
2011,07,02,08,15,389.10
2011,07,02,08,16,391.70
2011,07,02,08,17,394.30
2011,07,02,08,18,396.90
2011,07,02,08,19,399.90
2011,07,02,08,20,402.20
2011,07,02,08,21,403.70
2011,07,02,08,22,405.90
2011,07,02,08,23,410.00
2011,07,02,08,24,410.90
2011,07,02,08,25,414.90
2011,07,02,08,26,417.60
2011,07,02,08,27,419.60
2011,07,02,08,28,423.60
2011,07,02,08,29,425.40
2011,07,02,08,30,428.40
2011,07,02,08,31,431.50
2011,07,02,08,32,433.30
2011,07,02,08,33,435.60
2011,07,02,08,34,438.80
2011,07,02,08,35,439.80
2011,07,02,08,36,443.70
2011,07,02,08,37,445.00
2011,07,02,08,38,447.10
2011,07,02,08,39,448.00
2011,07,02,08,40,451.90
2011,07,02,08,41,455.80
2011,07,02,08,42,459.70
2011,07,02,08,43,462.60
2011,07,02,08,44,465.40
2011,07,02,08,45,467.70
2011,07,02,08,46,468.50
2011,07,02,08,47,473.50
2011,07,02,08,48,475.40
2011,07,02,08,49,477.20
2011,07,02,08,50,479.40
2011,07,02,08,51,480.00
2011,07,02,08,52,483.20
2011,07,02,08,53,485.50
2011,07,02,08,54,488.20
2011,07,02,08,55,490.00
2011,07,02,08,56,492.90
2011,07,02,08,57,495.70
2011,07,02,08,58,499.40
2011,07,02,08,59,503.90
2011,07,02,09,00,506.90
2011,07,02,09,01,510.30
2011,07,02,09,02,512.00
2011,07,02,09,03,513.00
2011,07,02,09,04,515.30
2011,07,02,09,05,517.90
2011,07,02,09,06,521.80
2011,07,02,09,07,524.00
2011,07,02,09,08,525.50
2011,07,02,09,09,527.00
2011,07,02,09,10,529.30
2011,07,02,09,11,532.00
2011,07,02,09,12,534.90
2011,07,02,09,13,537.20
2011,07,02,09,14,540.40
2011,07,02,09,15,543.00
2011,07,02,09,16,547.20
2011,07,02,09,17,548.70
2011,07,02,09,18,552.10
2011,07,02,09,19,554.60
2011,07,02,09,20,558.00
2011,07,02,09,21,561.10
2011,07,02,09,22,563.20
2011,07,02,09,23,565.50
2011,07,02,09,24,569.50
2011,07,02,09,25,571.00
2011,07,02,09,26,572.70
2011,07,02,09,27,576.90
2011,07,02,09,28,578.50
2011,07,02,09,29,580.80
2011,07,02,09,30,583.70
2011,07,02,09,31,586.40
2011,07,02,09,32,588.60
2011,07,02,09,33,589.50
2011,07,02,09,34,594.00
2011,07,02,09,35,596.00
2011,07,02,09,36,601.30
2011,07,02,09,37,608.20
2011,07,02,09,38,539.30
2011,07,02,09,39,527.10
2011,07,02,09,40,515.60
2011,07,02,09,41,536.30
2011,07,02,09,42,560.60
2011,07,02,09,43,615.70
2011,07,02,09,44,634.40
2011,07,02,09,45,628.80
2011,07,02,09,46,609.20
2011,07,02,09,47,638.10
2011,07,02,09,48,640.10
2011,07,02,09,49,643.00
2011,07,02,09,50,643.00
2011,07,02,09,51,642.80
2011,07,02,09,52,642.00
2011,07,02,09,53,642.50
2011,07,02,09,54,644.20
2011,07,02,09,55,646.60
2011,07,02,09,56,647.10
2011,07,02,09,57,649.20
2011,07,02,09,58,650.70
2011,07,02,09,59,653.10
2011,07,02,10,00,655.40
2011,07,02,10,01,656.80
2011,07,02,10,02,661.00
2011,07,02,10,03,663.20
2011,07,02,10,04,664.70
2011,07,02,10,05,667.00
2011,07,02,10,06,669.30
2011,07,02,10,07,668.40
2011,07,02,10,08,672.80
2011,07,02,10,09,673.00
2011,07,02,10,10,674.50
2011,07,02,10,11,675.90
2011,07,02,10,12,675.00
2011,07,02,10,13,678.40
2011,07,02,10,14,679.40
2011,07,02,10,15,683.10
2011,07,02,10,16,686.40
2011,07,02,10,17,688.10
2011,07,02,10,18,689.00
2011,07,02,10,19,690.70
2011,07,02,10,20,693.50
2011,07,02,10,21,696.00
2011,07,02,10,22,696.00
2011,07,02,10,23,697.20
2011,07,02,10,24,699.50
2011,07,02,10,25,700.80
2011,07,02,10,26,703.30
2011,07,02,10,27,705.90
2011,07,02,10,28,708.00
2011,07,02,10,29,709.30
2011,07,02,10,30,711.50
2011,07,02,10,31,713.80
2011,07,02,10,32,714.50
2011,07,02,10,33,717.60
2011,07,02,10,34,719.90
2011,07,02,10,35,721.60
2011,07,02,10,36,722.00
2011,07,02,10,37,725.90
2011,07,02,10,38,728.20
2011,07,02,10,39,729.70
2011,07,02,10,40,731.00
2011,07,02,10,41,732.30
2011,07,02,10,42,736.20
2011,07,02,10,43,738.10
2011,07,02,10,44,740.40
2011,07,02,10,45,742.00
2011,07,02,10,46,742.00
2011,07,02,10,47,745.20
2011,07,02,10,48,747.00
2011,07,02,10,49,750.60
2011,07,02,10,50,749.50
2011,07,02,10,51,752.30
2011,07,02,10,52,754.00
2011,07,02,10,53,755.50
2011,07,02,10,54,757.70
2011,07,02,10,55,758.00
2011,07,02,10,56,758.30
2011,07,02,10,57,759.80
2011,07,02,10,58,761.00
2011,07,02,10,59,762.50
2011,07,02,11,00,764.70
2011,07,02,11,01,766.30
2011,07,02,11,02,769.20
2011,07,02,11,03,772.00
2011,07,02,11,04,772.00
2011,07,02,11,05,772.00
2011,07,02,11,06,773.00
2011,07,02,11,07,775.00
2011,07,02,11,08,775.60
2011,07,02,11,09,777.00
2011,07,02,11,10,778.30
2011,07,02,11,11,781.20
2011,07,02,11,12,782.20
2011,07,02,11,13,786.00
2011,07,02,11,14,786.70
2011,07,02,11,15,788.00
2011,07,02,11,16,788.60
2011,07,02,11,17,790.60
2011,07,02,11,18,794.80
2011,07,02,11,19,795.20
2011,07,02,11,20,797.40
2011,07,02,11,21,800.00
2011,07,02,11,22,801.40
2011,07,02,11,23,802.80
2011,07,02,11,24,808.30
2011,07,02,11,25,806.00
2011,07,02,11,26,808.30
2011,07,02,11,27,808.10
2011,07,02,11,28,809.70
2011,07,02,11,29,811.70
2011,07,02,11,30,812.00
2011,07,02,11,31,812.50
2011,07,02,11,32,814.00
2011,07,02,11,33,815.10
2011,07,02,11,34,816.00
2011,07,02,11,35,816.00
2011,07,02,11,36,817.20
2011,07,02,11,37,819.50
2011,07,02,11,38,820.10
2011,07,02,11,39,821.30
2011,07,02,11,40,821.60
2011,07,02,11,41,821.00
2011,07,02,11,42,821.00
2011,07,02,11,43,821.90
2011,07,02,11,44,824.00
2011,07,02,11,45,824.00
2011,07,02,11,46,825.40
2011,07,02,11,47,826.00
2011,07,02,11,48,829.70
2011,07,02,11,49,828.00
2011,07,02,11,50,828.90
2011,07,02,11,51,830.60
2011,07,02,11,52,832.50
2011,07,02,11,53,834.70
2011,07,02,11,54,835.30
2011,07,02,11,55,837.00
2011,07,02,11,56,837.50
2011,07,02,11,57,839.30
2011,07,02,11,58,841.60
2011,07,02,11,59,840.20
2011,07,02,12,00,842.00
2011,07,02,12,01,842.00
2011,07,02,12,02,844.50
2011,07,02,12,03,846.40
2011,07,02,12,04,846.00
2011,07,02,12,05,846.90
2011,07,02,12,06,847.40
2011,07,02,12,07,849.70
2011,07,02,12,08,849.90
2011,07,02,12,09,849.00
2011,07,02,12,10,850.60
2011,07,02,12,11,853.00
2011,07,02,12,12,852.50
2011,07,02,12,13,852.20
2011,07,02,12,14,854.00
2011,07,02,12,15,855.40
2011,07,02,12,16,854.30
2011,07,02,12,17,854.60
2011,07,02,12,18,858.50
2011,07,02,12,19,855.70
2011,07,02,12,20,858.00
2011,07,02,12,21,858.00
2011,07,02,12,22,859.70
2011,07,02,12,23,860.50
2011,07,02,12,24,863.00
2011,07,02,12,25,863.00
2011,07,02,12,26,863.00
2011,07,02,12,27,863.00
2011,07,02,12,28,864.80
2011,07,02,12,29,867.20
2011,07,02,12,30,868.00
2011,07,02,12,31,867.50
2011,07,02,12,32,867.00
2011,07,02,12,33,867.00
2011,07,02,12,34,868.00
2011,07,02,12,35,870.40
2011,07,02,12,36,872.00
2011,07,02,12,37,872.90
2011,07,02,12,38,874.00
2011,07,02,12,39,874.00
2011,07,02,12,40,876.80
2011,07,02,12,41,879.40
2011,07,02,12,42,881.00
2011,07,02,12,43,881.50
2011,07,02,12,44,886.50
2011,07,02,12,45,886.80
2011,07,02,12,46,886.10
2011,07,02,12,47,823.80
2011,07,02,12,48,888.60
2011,07,02,12,49,891.90
2011,07,02,12,50,889.70
2011,07,02,12,51,888.20
2011,07,02,12,52,887.80
2011,07,02,12,53,885.50
2011,07,02,12,54,884.00
2011,07,02,12,55,882.90
2011,07,02,12,56,881.30
2011,07,02,12,57,881.80
2011,07,02,12,58,884.20
2011,07,02,12,59,886.00
2011,07,02,13,00,886.00
2011,07,02,13,01,884.80
2011,07,02,13,02,884.00
2011,07,02,13,03,884.00
2011,07,02,13,04,883.70
2011,07,02,13,05,882.60
2011,07,02,13,06,883.20
2011,07,02,13,07,884.30
2011,07,02,13,08,886.00
2011,07,02,13,09,886.00
2011,07,02,13,10,885.70
2011,07,02,13,11,884.60
2011,07,02,13,12,886.00
2011,07,02,13,13,886.00
2011,07,02,13,14,884.50
2011,07,02,13,15,887.60
2011,07,02,13,16,891.00
2011,07,02,13,17,892.30
2011,07,02,13,18,894.00
2011,07,02,13,19,890.50
2011,07,02,13,20,853.80
2011,07,02,13,21,895.10
2011,07,02,13,22,897.40
2011,07,02,13,23,895.00
2011,07,02,13,24,895.00
2011,07,02,13,25,896.90
2011,07,02,13,26,898.00
2011,07,02,13,27,898.00
2011,07,02,13,28,897.60
2011,07,02,13,29,895.70
2011,07,02,13,30,896.60
2011,07,02,13,31,899.30
2011,07,02,13,32,901.70
2011,07,02,13,33,902.00
2011,07,02,13,34,902.00
2011,07,02,13,35,902.80
2011,07,02,13,36,904.00
2011,07,02,13,37,904.70
2011,07,02,13,38,905.00
2011,07,02,13,39,908.60
2011,07,02,13,40,905.50
2011,07,02,13,41,908.70
2011,07,02,13,42,909.90
2011,07,02,13,43,907.50
2011,07,02,13,44,907.00
2011,07,02,13,45,909.00
2011,07,02,13,46,909.60
2011,07,02,13,47,910.20
2011,07,02,13,48,909.00
2011,07,02,13,49,909.00
2011,07,02,13,50,897.40
2011,07,02,13,51,910.40
2011,07,02,13,52,906.10
2011,07,02,13,53,903.10
2011,07,02,13,54,903.30
2011,07,02,13,55,904.70
2011,07,02,13,56,905.00
2011,07,02,13,57,905.00
2011,07,02,13,58,904.70
2011,07,02,13,59,904.00
2011,07,02,14,00,904.00
2011,07,02,14,01,904.00
2011,07,02,14,02,904.40
2011,07,02,14,03,899.40
2011,07,02,14,04,876.90
2011,07,02,14,05,919.60
2011,07,02,14,06,923.60
2011,07,02,14,07,925.00
2011,07,02,14,08,925.00
2011,07,02,14,09,924.60
2011,07,02,14,10,923.80
2011,07,02,14,11,923.90
2011,07,02,14,12,925.10
2011,07,02,14,13,931.10
2011,07,02,14,14,952.00
2011,07,02,14,15,953.00
2011,07,02,14,16,941.20
2011,07,02,14,17,925.00
2011,07,02,14,18,912.40
2011,07,02,14,19,902.80
2011,07,02,14,20,903.60
2011,07,02,14,21,900.00
2011,07,02,14,22,901.70
2011,07,02,14,23,902.80
2011,07,02,14,24,902.00
2011,07,02,14,25,902.00
2011,07,02,14,26,898.00
2011,07,02,14,27,863.60
2011,07,02,14,28,789.00
2011,07,02,14,29,789.00
2011,07,02,14,30,898.50
2011,07,02,14,31,941.30
2011,07,02,14,32,957.30
2011,07,02,14,33,964.10
2011,07,02,14,34,953.00
2011,07,02,14,35,878.80
2011,07,02,14,36,887.80
2011,07,02,14,37,900.00
2011,07,02,14,38,869.70
2011,07,02,14,39,686.00
2011,07,02,14,40,645.00
2011,07,02,14,41,645.00
2011,07,02,14,42,840.00
2011,07,02,14,43,915.40
2011,07,02,14,44,916.00
2011,07,02,14,45,916.00
2011,07,02,14,46,916.00
2011,07,02,14,47,916.00
2011,07,02,14,48,837.80
2011,07,02,14,49,817.00
2011,07,02,14,50,817.00
2011,07,02,14,51,817.00
2011,07,02,14,52,764.20
2011,07,02,14,53,721.00
2011,07,02,14,54,541.80
2011,07,02,14,55,439.00
2011,07,02,14,56,452.40
2011,07,02,14,57,490.00
2011,07,02,14,58,635.30
2011,07,02,14,59,825.80
2011,07,02,15,00,819.60
2011,07,02,15,01,792.80
2011,07,02,15,02,670.20
2011,07,02,15,03,724.50
2011,07,02,15,04,715.00
2011,07,02,15,05,719.00
2011,07,02,15,06,825.20
2011,07,02,15,07,824.50
2011,07,02,15,08,814.10
2011,07,02,15,09,807.80
2011,07,02,15,10,803.30
2011,07,02,15,11,799.20
2011,07,02,15,12,796.30
2011,07,02,15,13,795.50
2011,07,02,15,14,793.00
2011,07,02,15,15,790.80
2011,07,02,15,16,788.00
2011,07,02,15,17,786.50
2011,07,02,15,18,784.10
2011,07,02,15,19,781.40
2011,07,02,15,20,779.00
2011,07,02,15,21,778.10
2011,07,02,15,22,775.70
2011,07,02,15,23,775.00
2011,07,02,15,24,772.20
2011,07,02,15,25,771.60
2011,07,02,15,26,770.00
2011,07,02,15,27,767.90
2011,07,02,15,28,766.00
2011,07,02,15,29,765.20
2011,07,02,15,30,764.80
2011,07,02,15,31,762.60
2011,07,02,15,32,760.30
2011,07,02,15,33,758.50
2011,07,02,15,34,756.60
2011,07,02,15,35,754.30
2011,07,02,15,36,752.00
2011,07,02,15,37,750.60
2011,07,02,15,38,748.20
2011,07,02,15,39,747.00
2011,07,02,15,40,744.90
2011,07,02,15,41,744.00
2011,07,02,15,42,740.00
2011,07,02,15,43,739.40
2011,07,02,15,44,737.60
2011,07,02,15,45,735.90
2011,07,02,15,46,735.00
2011,07,02,15,47,735.00
2011,07,02,15,48,732.40
2011,07,02,15,49,728.70
2011,07,02,15,50,728.00
2011,07,02,15,51,726.90
2011,07,02,15,52,724.50
2011,07,02,15,53,724.00
2011,07,02,15,54,723.70
2011,07,02,15,55,722.00
2011,07,02,15,56,721.50
2011,07,02,15,57,717.40
2011,07,02,15,58,715.00
2011,07,02,15,59,714.10
2011,07,02,16,00,712.00
2011,07,02,16,01,712.00
2011,07,02,16,02,710.00
2011,07,02,16,03,706.10
2011,07,02,16,04,705.00
2011,07,02,16,05,702.90
2011,07,02,16,06,701.00
2011,07,02,16,07,699.90
2011,07,02,16,08,697.00
2011,07,02,16,09,694.00
2011,07,02,16,10,693.00
2011,07,02,16,11,692.40
2011,07,02,16,12,687.00
2011,07,02,16,13,686.00
2011,07,02,16,14,684.00
2011,07,02,16,15,682.60
2011,07,02,16,16,680.30
2011,07,02,16,17,679.00
2011,07,02,16,18,678.50
2011,07,02,16,19,676.20
2011,07,02,16,20,673.90
2011,07,02,16,21,670.90
2011,07,02,16,22,668.30
2011,07,02,16,23,667.40
2011,07,02,16,24,664.00
2011,07,02,16,25,663.60
2011,07,02,16,26,661.80
2011,07,02,16,27,659.50
2011,07,02,16,28,656.50
2011,07,02,16,29,653.70
2011,07,02,16,30,651.40
2011,07,02,16,31,649.60
2011,07,02,16,32,647.90
2011,07,02,16,33,645.50
2011,07,02,16,34,642.30
2011,07,02,16,35,641.70
2011,07,02,16,36,639.40
2011,07,02,16,37,637.10
2011,07,02,16,38,635.40
2011,07,02,16,39,633.50
2011,07,02,16,40,631.20
2011,07,02,16,41,630.60
2011,07,02,16,42,628.70
2011,07,02,16,43,627.10
2011,07,02,16,44,623.60
2011,07,02,16,45,621.20
2011,07,02,16,46,619.00
2011,07,02,16,47,616.60
2011,07,02,16,48,615.00
2011,07,02,16,49,613.40
2011,07,02,16,50,612.00
2011,07,02,16,51,608.80
2011,07,02,16,52,606.10
2011,07,02,16,53,605.70
2011,07,02,16,54,605.00
2011,07,02,16,55,601.70
2011,07,02,16,56,598.30
2011,07,02,16,57,596.30
2011,07,02,16,58,595.80
2011,07,02,16,59,593.50
2011,07,02,17,00,591.60
2011,07,02,17,01,591.00
2011,07,02,17,02,589.50
2011,07,02,17,03,585.60
2011,07,02,17,04,583.80
2011,07,02,17,05,582.00